Le nostre stazioni meteo in Italia

Pubblicità
Il mio iltempo24.it
Bergamo/Orio al Serio, Italia (16076): Temperatura & dewpoint: 19.05.2019 08:00:00 - 25.05.2019 08:00:00 (CEST)Bergamo/Orio al Serio, Italia (16076): velocità del vento: 19.05.2019 08:00:00 - 25.05.2019 08:00:00 (CEST)Bergamo/Orio al Serio, Italia (16076): direzione del vento: 19.05.2019 08:00:00 - 25.05.2019 08:00:00 (CEST)Bergamo/Orio al Serio, Italia (16076): reduced air pressure: 19.05.2019 08:00:00 - 25.05.2019 08:00:00 (CEST)Bergamo/Orio al Serio, Italia (16076): visibility: 19.05.2019 08:00:00 - 25.05.2019 08:00:00 (CEST)Bergamo/Orio al Serio, Italia (16076): precipitazioni: 19.05.2019 08:00:00 - 25.05.2019 08:00:00 (CEST)
Data & Tempo tt [°C] td [°C] ff [km/h] ff [kn] dd ppp [hPa] vv [km] rr [mm]
25.05.2019 08:00:00 16,0 13,0 2 1 - - 10 -
25.05.2019 07:00:00 14,0 12,0 8 4 N - 10 -
25.05.2019 06:00:00 13,0 12,0 5 3 NNO - 10 -
25.05.2019 05:00:00 13,3 12,0 5 3 N 1013,2 10 0,0
25.05.2019 04:00:00 13,0 12,0 9 5 N - 10 -
25.05.2019 03:00:00 14,0 12,0 8 4 N - 10 -
25.05.2019 02:00:00 14,7 12,6 4 2 - 1013,0 10 -
25.05.2019 01:00:00 15,0 13,0 8 4 N - 10 -
25.05.2019 00:00:00 15,0 13,0 8 4 NNE - 10 -
24.05.2019 23:00:00 15,3 13,2 11 6 N 1013,4 7 0,0
24.05.2019 22:00:00 16,0 13,0 15 8 N - 7 -
24.05.2019 21:00:00 14,0 13,0 9 5 N - 7 -
24.05.2019 20:00:00 14,7 11,4 18 10 NNE 1012,8 3,0 -
24.05.2019 19:00:00 23,0 14,0 11 6 S - 8 -
24.05.2019 18:00:00 23,0 15,0 11 6 S - 8 -
24.05.2019 17:00:00 23,9 14,8 11 6 OSO 1012,0 9 0,0
24.05.2019 16:00:00 24,0 14,0 8 4 - - 9 -
24.05.2019 15:00:00 23,0 15,0 9 5 S - 9 -
24.05.2019 14:00:00 23,5 15,9 11 6 SSO 1013,5 10 -
24.05.2019 13:00:00 23,0 15,0 9 5 SSE - 10 -
24.05.2019 12:00:00 22,0 15,0 8 4 - - 10 -
24.05.2019 11:00:00 21,0 12,9 5 3 - 1014,6 10 0,0
24.05.2019 10:00:00 20,0 13,0 4 2 - - 10 -
24.05.2019 09:00:00 18,0 13,0 5 3 SSO - 10 -
24.05.2019 08:00:00 17,0 12,5 5 3 N 1014,6 10 -
24.05.2019 07:00:00 14,0 12,0 8 4 N - 10 -
24.05.2019 06:00:00 14,0 12,0 8 4 N - 10 -
24.05.2019 05:00:00 13,8 11,7 8 4 N 1014,1 10 0,0
24.05.2019 04:00:00 15,0 12,0 4 2 - - 10 -
24.05.2019 03:00:00 15,0 12,0 5 3 N - 10 -
24.05.2019 02:00:00 15,1 12,5 5 3 N 1014,4 - -
24.05.2019 01:00:00 16,0 13,0 9 5 N - 10 -
24.05.2019 00:00:00 17,0 13,0 8 4 N - 10 -
23.05.2019 23:00:00 17,2 12,7 8 4 N 1014,6 10 0,0
23.05.2019 22:00:00 19,0 12,0 5 3 NNE - 10 -
23.05.2019 21:00:00 21,0 11,0 5 3 SSE - 10 -
23.05.2019 20:00:00 22,4 10,6 9 5 S 1013,3 10 -
23.05.2019 19:00:00 24,0 11,0 11 6 S - 10 -
23.05.2019 18:00:00 24,0 11,0 11 6 SSO - 10 -
23.05.2019 17:00:00 24,0 13,3 9 5 - 1014,0 10 0,0
23.05.2019 16:00:00 24,0 12,0 11 6 SSO - 10 -
23.05.2019 15:00:00 23,0 13,0 9 5 SSO - 10 -
23.05.2019 14:00:00 22,2 13,0 9 5 S 1015,5 10 -
23.05.2019 13:00:00 22,0 13,0 11 6 SSO - 10 -
23.05.2019 12:00:00 20,0 13,0 5 3 - - 10 -
23.05.2019 11:00:00 20,0 12,4 5 3 SSE 1016,6 10 0,0
23.05.2019 10:00:00 20,0 13,0 4 2 - - 10 -
23.05.2019 09:00:00 19,0 13,0 2 1 - - 10 -
23.05.2019 08:00:00 15,7 12,9 4 2 - 1016,8 10 -
23.05.2019 07:00:00 14,0 12,0 4 2 NNE - 10 -
23.05.2019 06:00:00 13,0 11,0 5 3 NE - 10 -
23.05.2019 05:00:00 13,1 11,0 5 3 NNO 1016,5 10 0,0
23.05.2019 04:00:00 13,0 11,0 9 5 N - 10 -
23.05.2019 03:00:00 13,0 12,0 5 3 NNE - 10 -
23.05.2019 02:00:00 14,3 12,9 8 4 NNE 1016,4 10 -
23.05.2019 01:00:00 15,0 12,0 5 3 N - 10 -
23.05.2019 00:00:00 15,0 12,0 2 1 - - 10 -
22.05.2019 23:00:00 15,1 11,6 9 5 NNE 1015,8 10 0,0
22.05.2019 22:00:00 16,0 11,0 13 7 NE - 10 -
22.05.2019 21:00:00 19,0 14,0 5 3 NNE - 10 -
22.05.2019 20:00:00 20,0 13,8 8 4 SE 1013,7 10 -
22.05.2019 19:00:00 21,0 12,0 9 5 SE - 10 -
22.05.2019 18:00:00 22,0 13,0 8 4 S - 10 -
22.05.2019 17:00:00 23,4 12,1 11 6 OSO 1013,1 10 0,0
22.05.2019 16:00:00 23,0 12,0 4 2 - - 10 -
22.05.2019 15:00:00 22,0 13,0 5 3 - - 10 -
22.05.2019 14:00:00 20,6 12,7 8 4 ESE 1014,3 10 -
22.05.2019 13:00:00 19,0 12,0 5 3 - - 10 -
22.05.2019 12:00:00 18,0 13,0 4 2 - - 10 -
22.05.2019 11:00:00 17,8 12,7 4 2 - 1014,7 10 0,0
22.05.2019 10:00:00 16,0 12,0 4 2 - - 10 -
22.05.2019 09:00:00 15,0 12,0 5 3 ENE - 9 -
22.05.2019 08:00:00 12,1 11,9 4 2 NNE 1014,3 9 -
22.05.2019 07:00:00 10,0 10,0 4 2 - - 10 -
22.05.2019 06:00:00 11,0 11,0 5 3 NNE - 10 -
22.05.2019 05:00:00 10,9 10,7 4 2 - 1013,2 10 0,0
22.05.2019 04:00:00 - - - - - - - -
22.05.2019 03:00:00 13,0 12,0 5 3 NO - 10 -
22.05.2019 02:00:00 13,1 12,1 8 4 ONO 1012,7 10 -
22.05.2019 01:00:00 14,0 13,0 5 3 N - 10 -
22.05.2019 00:00:00 14,0 14,0 4 2 N - 10 -
21.05.2019 23:00:00 14,6 13,6 5 3 N 1013,4 10 0,0
21.05.2019 22:00:00 15,0 13,0 9 5 ESE - 10 -
21.05.2019 21:00:00 16,0 15,0 2 1 - - 10 -
21.05.2019 20:00:00 16,8 13,9 4 2 - 1009,9 10 -
21.05.2019 19:00:00 19,0 16,0 8 4 NNE - 10 -
21.05.2019 18:00:00 22,0 13,0 5 3 SSO - 10 -
21.05.2019 17:00:00 22,2 13,3 13 7 SSO 1008,9 10 0,0
21.05.2019 16:00:00 22,0 14,0 15 8 SO - 10 -
21.05.2019 15:00:00 22,0 14,0 13 7 SO - 10 -
21.05.2019 14:00:00 21,3 14,6 11 6 SSO 1008,6 10 -
21.05.2019 13:00:00 20,0 14,0 5 3 S - 10 -
21.05.2019 12:00:00 18,0 13,0 2 1 - - 10 -
21.05.2019 11:00:00 16,1 12,6 8 4 OSO 1008,6 10 0,0
21.05.2019 10:00:00 15,0 12,0 8 4 O - 10 -
21.05.2019 09:00:00 14,0 12,0 4 2 - - 9 -
21.05.2019 08:00:00 12,3 11,6 4 2 - 1007,7 8 -
21.05.2019 07:00:00 11,0 11,0 4 2 N - 10 -
21.05.2019 06:00:00 12,0 11,0 4 2 - - 10 -
21.05.2019 05:00:00 12,1 10,6 4 2 - 1007,1 10 0,0
21.05.2019 04:00:00 12,0 11,0 8 4 O - 10 -
21.05.2019 03:00:00 13,0 11,0 16 9 O - 10 -
21.05.2019 02:00:00 13,3 10,7 16 9 O 1007,3 10 -
21.05.2019 01:00:00 14,0 11,0 16 9 O - 10 -
21.05.2019 00:00:00 14,0 12,0 11 6 O - 10 -
20.05.2019 23:00:00 13,9 12,3 11 6 O 1007,2 10 0,0
20.05.2019 22:00:00 14,0 13,0 9 5 OSO - 8 -
20.05.2019 21:00:00 14,0 13,0 8 4 OSO - 8 -
20.05.2019 20:00:00 14,4 13,6 9 5 SO 1006,3 7 -
20.05.2019 19:00:00 15,0 14,0 8 4 SO - 5 -
20.05.2019 18:00:00 14,0 13,0 8 4 OSO - 5 -
20.05.2019 17:00:00 14,1 13,4 4 2 - 1006,2 4,0 0,0
20.05.2019 16:00:00 14,0 13,0 8 4 SSO - 3,5 -
20.05.2019 15:00:00 14,0 13,0 9 5 SSO - 4,0 -
20.05.2019 14:00:00 13,7 12,6 9 5 SO 1006,1 4,0 -
20.05.2019 13:00:00 13,0 12,0 5 3 SSO - 4,0 -
20.05.2019 12:00:00 13,0 12,0 5 3 ONO - 5 -
20.05.2019 11:00:00 13,5 12,5 8 4 OSO 1005,4 4,0 0,0
20.05.2019 10:00:00 13,0 12,0 5 3 O - 4,0 -
20.05.2019 09:00:00 13,0 12,0 8 4 O - 4,0 -
20.05.2019 08:00:00 12,5 12,2 4 2 - 1004,4 4,0 -
20.05.2019 07:00:00 12,0 12,0 2 1 - - 4,0 -
20.05.2019 06:00:00 12,0 12,0 2 1 - - 1,5 -
20.05.2019 05:00:00 11,9 11,9 4 2 E 1004,4 0,3 0,0
20.05.2019 04:00:00 12,0 12,0 2 1 E - 4,0 -
20.05.2019 03:00:00 11,0 11,0 2 1 - - 6 -
20.05.2019 02:00:00 12,1 11,9 2 1 - 1004,7 6 -
20.05.2019 01:00:00 13,0 13,0 4 2 ONO - 4,0 -
20.05.2019 00:00:00 13,0 13,0 4 2 - - 3,0 -
19.05.2019 23:00:00 13,3 12,8 5 3 SO 1005,7 6 0,0
19.05.2019 22:00:00 14,0 13,0 8 4 OSO - 6 -
19.05.2019 21:00:00 14,0 13,0 11 6 O - 6 -
19.05.2019 20:00:00 14,0 12,9 9 5 OSO 1005,0 7 -
19.05.2019 19:00:00 15,0 13,0 9 5 OSO - 7 -
19.05.2019 18:00:00 14,0 14,0 11 6 SO - 6 -
19.05.2019 17:00:00 14,4 13,5 9 5 SO 1004,8 6 0,0
19.05.2019 16:00:00 14,0 13,0 5 3 SO - 5 -
19.05.2019 15:00:00 14,0 13,0 8 4 SSO - 5 -
19.05.2019 14:00:00 13,9 12,6 5 3 OSO 1004,9 5 -
19.05.2019 13:00:00 14,0 13,0 5 3 OSO - 6 -
19.05.2019 12:00:00 14,0 12,0 5 3 SSO - 5 -
19.05.2019 11:00:00 13,1 12,0 2 1 - 1004,9 4,0 0,0
19.05.2019 10:00:00 13,0 12,0 4 2 - - 5 -
19.05.2019 09:00:00 13,0 12,0 4 2 - - 6 -
19.05.2019 08:00:00 12,4 11,9 4 2 - 1004,7 4,0 -

tt = Temperatura
td = dewpoint
ff = velocità del vento
dd = direzione del vento
ppp = reduced air pressure
vv = visibility
rr = precipitazioni

Stazioni seguenti

WeatherPro
AMSI
MeteoEarth